Flag for Norway Weather past 2 weeks in Kopervik, Norway

Now
43 °F

Partly cloudy.


Feels Like: 36 °F
Forecast: 42 / 45 °F
Wind: 13 mph from Northwest

Location: Haugesund / Karmoy

Current Time: Dec 29, 2014 at 5:10:58 PM

Latest Report: Dec 29, 2014 at 4:20 PM


Visibility: N/A

Pressure: 30.39 "Hg

Humidity: 87%

Dew point: 39 °F

Location of KopervikLocation

Historic Weather in Kopervik — Graph

°F

Kopervik temperature yesterday

Maximum temperature yesterday: 37 °F (at 4:50 PM)
Minimum temperature yesterday: 21 °F (at 12:20 AM)
Average temperature yesterday: 32 °F

Past Weeks' High & Low Weather Summary

 TemperatureHumidityPressure
High48 °F (Dec 14, 3:20 PM)100% (Dec 14, 5:50 PM)30.39 "Hg (Dec 14, 5:50 PM)
Low21 °F (Dec 27, 11:50 PM)56% (Dec 15, 5:20 PM)29.12 "Hg (Dec 19, 6:50 AM)
Average39 °F83%29.60 "Hg
* Reported Dec 14 3:20 PM — Dec 29 3:50 PM, Kopervik, Weather by CustomWeather, © 2014

Note: Actual official high and low records may vary slightly from our data, if they occured in-between our weather recording intervals... More about our weather records

Advertising

Kopervik weather history for previous 24 hours

 ConditionsComfort  
Time TempWeatherWind HumidityBarometerVisibility
3:50 PM
Dec 29
45 °FPassing clouds.17 mph81%30.39 "HgN/A
3:20 PM45 °FScattered clouds.16 mph81%30.39 "HgN/A
2:50 PM45 °FPartly sunny.17 mph81%30.39 "HgN/A
2:20 PM45 °FScattered clouds.21 mph81%30.39 "HgN/A
1:50 PM45 °FBroken clouds.20 mph81%30.39 "HgN/A
1:20 PM45 °FBroken clouds.20 mph81%30.39 "Hg6 mi
12:50 PM43 °FLight rain. Broken clouds.20 mph87%30.36 "Hg4 mi
12:20 PM45 °FBroken clouds.17 mph81%30.36 "HgN/A
11:50 AM43 °FBroken clouds.21 mph87%30.36 "HgN/A
11:20 AM43 °FPartly sunny.20 mph81%30.36 "HgN/A
10:50 AM43 °FBroken clouds.20 mph81%30.36 "HgN/A
10:20 AM43 °FBroken clouds.20 mph81%30.36 "HgN/A
9:50 AM41 °FLight rain. Broken clouds.13 mph87%30.36 "HgN/A
9:20 AM43 °FPartly cloudy.20 mph81%30.36 "HgN/A
8:50 AM43 °FPartly cloudy.21 mph81%30.36 "HgN/A
8:20 AM39 °FLight rain. Mostly cloudy.13 mph87%30.36 "Hg5 mi
7:50 AM41 °FLight rain. Overcast.13 mph87%30.36 "Hg6 mi
7:20 AM41 °FLight rain. Overcast.16 mph87%30.36 "HgN/A
6:50 AM39 °FLight rain. Mostly cloudy.9 mph87%30.36 "HgN/A
6:20 AM36 °FLight rain. Mostly cloudy.13 mph93%30.36 "HgN/A
5:50 AM34 °FSprinkles. Overcast.5 mph87%30.36 "HgN/A
5:20 AM30 °FSprinkles. Passing clouds.6 mph93%30.39 "HgN/A
4:50 AM30 °FSprinkles. Overcast.3 mph93%30.39 "HgN/A
4:20 AM32 °FMostly cloudy.3 mph87%30.39 "HgN/A
3:50 AM36 °FChilly.3 mph75%30.39 "HgN/A
3:20 AM36 °FPassing clouds.6 mph75%30.39 "HgN/A
2:50 AM37 °FPassing clouds.8 mph75%30.39 "HgN/A
2:20 AM37 °FPassing clouds.13 mph75%30.39 "HgN/A
1:50 AM37 °FPassing clouds.12 mph75%30.36 "HgN/A
1:20 AM37 °FChilly.16 mph70%30.36 "HgN/A
12:50 AM37 °FPassing clouds.17 mph75%30.36 "HgN/A
12:20 AM37 °FChilly.18 mph75%30.36 "HgN/A
11:50 PM
Dec 28
37 °FChilly.18 mph70%30.36 "HgN/A
11:20 PM37 °FClear.17 mph70%30.36 "HgN/A
10:50 PM36 °FClear.12 mph75%30.36 "HgN/A
10:20 PM36 °FClear.18 mph75%30.33 "HgN/A
9:50 PM37 °FClear.18 mph75%30.33 "HgN/A
9:20 PM37 °FClear.21 mph75%30.33 "HgN/A
8:50 PM37 °FPassing clouds.21 mph75%30.33 "HgN/A
8:20 PM37 °FPassing clouds.21 mph75%30.30 "HgN/A
7:50 PM37 °FPassing clouds.18 mph81%30.30 "HgN/A
7:20 PM37 °FPassing clouds.17 mph81%30.27 "HgN/A
6:50 PM37 °FPassing clouds.18 mph81%30.27 "HgN/A
6:20 PM36 °FPassing clouds.20 mph87%30.27 "HgN/A
5:20 PM37 °FPassing clouds.23 mph81%30.24 "HgN/A
Weather by CustomWeather, © 2014

See weather overviewHow to use our weather pages